Change the Weather History Date:

Thursday, May 2, 2013

  Actual Average Record
Temperature  
Mean Temperature 77 °F 75 °F  
Max Temperature 89 °F 83 °F 91 °F (1961)
Min Temperature 65 °F 66 °F 60 °F (1986)
Degree Days  
Heating Degree Days 0 0  
Month to date heating degree days 0 0  
Since 1 July heating degree days 0 0  
Cooling Degree Days 12 10  
Month to date cooling degree days 24 20  
Year to date cooling degree days 1007 946  
Growing Degree Days 26 (Base 50)    
Moisture  
Dew Point 66 °F    
Average Humidity 70    
Maximum Humidity 90    
Minimum Humidity 50    
Precipitation  
Precipitation 0.00 in 0.04 in 0.22 in (1957)
Month to date precipitation 0.00 0.07  
Year to date precipitation 6.20 8.83  
Snow  
Snow 0.00 in - - ()
Month to date snowfall 0.0  
Since 1 July snowfall 0.0  
Snow Depth 0.00 in    
Sea Level Pressure  
Sea Level Pressure 30.07 in    
Wind  
Wind Speed 7 mph (ESE)    
Max Wind Speed 23 mph    
Max Gust Speed 28 mph    
Visibility 10 miles    
Events      
T = Trace of Precipitation, MM = Missing Value Source: NWS Daily Summary

Daily Weather History Graph

Daily Weather History Graph

Search for Another Location

Airport or City:

Trip Planner

Search our weather history database for the weather conditions in past years. The results will help you decide how hot, cold, wet, or windy it might be!

Date:

Astronomy

May. 02, 2013 Rise Set
Actual Time 5:54 AM HST 6:51 PM HST
Civil Twilight 5:31 AM HST 7:14 PM HST
Nautical Twilight 5:03 AM HST 7:41 PM HST
Astronomical Twilight 4:35 AM HST 8:09 PM HST
Moon 12:54 AM HST (5/2) 12:43 PM HST (5/2)
Length of Visible Light 13h 43m
Length of Day
12h 56m
Last Quarter, 45% of the Moon is Illuminated
May 2
Last Quarter
May 9
New
May 17
First Quarter
May 24
Full
May 31
Last Quarter

Hourly Weather History & Observations

Time (HST) Temp. Heat Index Dew Point Humidity Pressure Visibility Wind Dir Wind Speed Gust Speed Precip Events Conditions
12:54 AM 71.1 °F - 66.0 °F 84% 30.07 in 10.0 mi Calm Calm - N/A   Partly Cloudy
1:54 AM 69.1 °F - 66.0 °F 90% 30.05 in 10.0 mi SE 3.5 mph - N/A   Clear
2:54 AM 69.1 °F - 66.0 °F 90% 30.05 in 10.0 mi SSE 4.6 mph - N/A   Clear
3:54 AM 69.1 °F - 64.0 °F 84% 30.05 in 10.0 mi ESE 5.8 mph - N/A   Clear
4:54 AM 68.0 °F - 64.9 °F 90% 30.05 in 10.0 mi SSW 3.5 mph - N/A   Clear
5:54 AM 68.0 °F - 64.0 °F 87% 30.06 in 10.0 mi Calm Calm - N/A   Clear
6:54 AM 71.1 °F - 64.9 °F 81% 30.09 in 10.0 mi Calm Calm - N/A   Scattered Clouds
7:54 AM 75.9 °F - 66.0 °F 71% 30.09 in 10.0 mi South 3.5 mph - N/A   Partly Cloudy
8:54 AM 81.0 °F 83.3 °F 66.9 °F 62% 30.09 in 10.0 mi Calm Calm - N/A   Partly Cloudy
9:54 AM 84.0 °F 86.3 °F 66.0 °F 55% 30.08 in 10.0 mi Variable 4.6 mph - N/A   Scattered Clouds
10:54 AM 84.0 °F 86.5 °F 66.9 °F 56% 30.09 in 10.0 mi SSE 6.9 mph - N/A   Scattered Clouds
11:54 AM 86.0 °F 88.2 °F 66.0 °F 51% 30.08 in 10.0 mi East 15.0 mph 23.0 mph N/A   Scattered Clouds
12:54 PM 86.0 °F 88.2 °F 66.0 °F 51% 30.06 in 10.0 mi ENE 12.7 mph 26.5 mph N/A   Scattered Clouds
1:54 PM 87.1 °F 89.2 °F 66.0 °F 49% 30.05 in 10.0 mi NE 19.6 mph 27.6 mph N/A   Scattered Clouds
2:54 PM 87.1 °F 91.3 °F 69.1 °F 55% 30.04 in 10.0 mi NE 17.3 mph 24.2 mph N/A   Scattered Clouds
3:54 PM 84.0 °F 86.5 °F 66.9 °F 56% 30.04 in 10.0 mi ENE 13.8 mph 18.4 mph N/A   Partly Cloudy
4:54 PM 84.0 °F 86.5 °F 66.9 °F 56% 30.04 in 10.0 mi ENE 13.8 mph - N/A   Scattered Clouds
5:54 PM 81.0 °F 82.7 °F 64.9 °F 58% 30.04 in 10.0 mi NE 10.4 mph - N/A   Scattered Clouds
6:54 PM 78.1 °F - 63.0 °F 60% 30.05 in 10.0 mi NE 6.9 mph - N/A   Partly Cloudy
7:54 PM 75.9 °F - 64.9 °F 69% 30.07 in 10.0 mi ESE 3.5 mph - N/A   Partly Cloudy
8:54 PM 73.9 °F - 64.0 °F 71% 30.09 in 10.0 mi ESE 3.5 mph - N/A   Partly Cloudy
9:54 PM 71.1 °F - 64.9 °F 81% 30.11 in 10.0 mi SSE 4.6 mph - N/A   Partly Cloudy
10:54 PM 71.1 °F - 64.9 °F 81% 30.10 in 10.0 mi Calm Calm - N/A   Clear
11:54 PM 72.0 °F - 64.9 °F 78% 30.10 in 10.0 mi Calm Calm - N/A   Mostly Cloudy